Terug naar catalogus

STARLINK-2358

ActiefCommunicatieVLEO
NORAD 47898·PAYLOAD·🇺🇸 United States

Gelanceerd Mar 14, 2021 vanaf Cape Canaveral Space Force Station

Loading…

Volgende Passages (komende 24 uur)

TLE

VersSource: CelesTrak SupGP

Epoch: Sep 14, 2026, 21:06 UTC

1 47898C 21021AQ  26257.87965278 -.00149120  00000+0 -47940-2 0  2577
2 47898  53.1572 107.6406 0001290  81.4858 336.6431 15.31785071    16

Volg STARLINK-2358 in realtime met AllMySat

Download on the App Store